Simultaneous Nadir Overpasses (SNOs) Predictions

Prediction of SNOs between METOP-A and NOAA-19 Satellite Orbit:

Table of predicted SNOs for the next 14.0 days since TLE Epoch: 10/15/2017
Index Date (METOP-A) Time (METOP-A) Lat,Lon (METOP-A) SZA (METOP-A ) Date (NOAA-19) Time (NOAA-19) Lat,Lon (NOAA-19) SZA (NOAA-19 ) Distance(km) Time Diff (sec)
1 10/16/2017 01:12:48 -77.74, -12.17 93.27 10/16/2017 01:11:35 -77.76, -12.27 93.27 2.94 73
2 10/16/2017 02:03:29 77.72, 155.05 86.72 10/16/2017 02:02:33 77.74, 155.07 86.74 2.68 56
3 10/16/2017 02:54:10 -77.72, -37.61 93.27 10/16/2017 02:53:36 -77.74, -37.68 93.26 2.73 34
4 10/16/2017 03:44:51 77.70, 129.61 86.72 10/16/2017 03:44:34 77.72, 129.66 86.75 3.12 17
5 10/16/2017 04:35:32 -77.70, -63.05 93.27 10/16/2017 04:35:37 -77.72, -63.09 93.24 2.70 5
6 10/16/2017 05:26:12 77.72, 104.38 86.77 10/16/2017 05:26:35 77.70, 104.25 86.76 3.26 23
7 10/16/2017 06:16:54 -77.68, -88.48 93.26 10/16/2017 06:17:38 -77.70, -88.50 93.23 2.85 44
8 10/16/2017 07:07:34 77.70, 78.94 86.78 10/16/2017 07:08:36 77.69, 78.84 86.77 2.52 62
9 10/16/2017 07:58:25 -77.27,-115.64 93.69 10/16/2017 07:59:30 -77.32,-112.10 93.51 86.63 65
10 10/26/2017 19:40:24 -78.13, 72.81 88.98 10/26/2017 19:39:18 -78.09, 69.27 89.15 81.08 66
11 10/26/2017 20:31:13 77.78,-121.65 90.62 10/26/2017 20:30:11 77.78,-121.74 90.61 2.38 62
12 10/26/2017 21:21:54 -77.78, 45.72 89.37 10/26/2017 21:21:11 -77.77, 45.59 89.39 3.45 43
13 10/26/2017 22:12:35 77.76,-147.09 90.62 10/26/2017 22:12:12 77.77,-147.15 90.62 1.86 23
14 10/26/2017 23:03:16 -77.76, 20.28 89.37 10/26/2017 23:03:12 -77.75, 20.17 89.38 2.71 4
15 10/26/2017 23:53:57 77.73,-172.52 90.62 10/26/2017 23:54:13 77.75,-172.56 90.63 1.61 16
16 10/27/2017 00:44:38 -77.74, -5.16 89.37 10/27/2017 00:45:13 -77.73, -5.24 89.37 1.98 35
17 10/27/2017 01:35:19 77.71, 162.04 90.62 10/27/2017 01:36:14 77.73, 162.03 90.64 1.73 55
18 10/27/2017 02:26:00 -77.72, -30.60 89.37 10/27/2017 02:27:14 -77.72, -30.65 89.36 1.27 74




NCC Satellite Simultaneous Nadir Overpasses (SNOs) Prediction Service
